Whiteman AFB, MO

4:55 PM CST on December 13, 2017 (GMT -0600)
Whiteman Air Force Base

Weather History for KSZL - April, 2013

Change the Weather History Date:

Saturday, April 27, 2013

  Actual Average Record
Temperature  
Mean Temperature 49 °F -  
Max Temperature 51 °F 67 °F 84 °F (2001)
Min Temperature 47 °F 48 °F 39 °F (2005)
Degree Days  
Heating Degree Days 16    
Moisture  
Dew Point 49 °F    
Average Humidity 100    
Maximum Humidity 100    
Minimum Humidity 100    
Precipitation  
Precipitation 0.00 in - - ()
Sea Level Pressure  
Sea Level Pressure 30.11 in    
Wind  
Wind Speed 7 mph (ENE)    
Max Wind Speed 10 mph    
Max Gust Speed -    
Visibility 9 miles    
Events Rain    
Averages and records for this station are not official NWS values.
T = Trace of Precipitation, MM = Missing Value Source: NWS Daily Summary

Daily Weather History Graph

Daily Weather History Graph

Search for Another Location

Airport or City:

Trip Planner

Search our weather history database for the weather conditions in past years. The results will help you decide how hot, cold, wet, or windy it might be!

Date:

Astronomy

Apr. 27, 2013 Rise Set
Actual Time 6:21 AM CDT 8:02 PM CDT
Civil Twilight 5:52 AM CDT 8:31 PM CDT
Nautical Twilight 5:18 AM CDT 9:05 PM CDT
Astronomical Twilight 4:42 AM CDT 9:42 PM CDT
Moon 10:31 PM CDT (4/27) 7:41 AM CDT (4/27)
Length of Visible Light 14h 38m
Length of Day
13h 41m
Waning Gibbous, 95% of the Moon is Illuminated
Apr 27
Waning Gibbous
May 2
Last Quarter
May 9
New
May 17
First Quarter
May 24
Full

Hourly Weather History & Observations

Time (CDT) Temp. Dew Point Humidity Pressure Visibility Wind Dir Wind Speed Gust Speed Precip Events Conditions
12:03 AM 48.2 °F 48.2 °F 100% 30.22 in 4.0 mi East 8.1 mph - N/A Rain Light Rain
12:23 AM 48.2 °F 48.2 °F 100% 30.22 in 4.0 mi East 6.9 mph - N/A Rain Light Rain
12:38 AM 48.2 °F 48.2 °F 100% 30.22 in 5.0 mi East 8.1 mph - N/A   Light Drizzle
12:40 AM 48.2 °F 48.2 °F 100% 30.22 in 5.0 mi East 6.9 mph - N/A   Overcast
12:50 AM 48.2 °F 48.2 °F 100% 30.22 in 7.0 mi East 5.8 mph - N/A   Overcast
12:58 AM 47.3 °F 47.3 °F 100% 30.23 in 7.0 mi East 6.9 mph - 0.00 in   Overcast
12:59 AM 48.2 °F 48.2 °F 100% 30.22 in 7.0 mi East 6.9 mph - N/A   Light Drizzle
1:24 AM 48.2 °F 48.2 °F 100% 30.21 in 5.0 mi East 8.1 mph - N/A Rain Light Rain
1:29 AM 48.2 °F 48.2 °F 100% 30.21 in 7.0 mi East 8.1 mph - N/A Rain Light Rain
1:34 AM 48.2 °F 48.2 °F 100% 30.20 in 10.0 mi East 8.1 mph - N/A   Light Drizzle
1:35 AM 48.2 °F 48.2 °F 100% 30.20 in 10.0 mi East 8.1 mph - N/A   Overcast
1:40 AM 48.2 °F 48.2 °F 100% 30.20 in 10.0 mi East 6.9 mph - N/A   Overcast
1:45 AM 48.2 °F 48.2 °F 100% 30.20 in 10.0 mi East 6.9 mph - N/A   Overcast
1:58 AM 47.5 °F 47.5 °F 100% 30.20 in 10.0 mi East 8.1 mph - 0.00 in   Overcast
2:20 AM 48.2 °F 48.2 °F 100% 30.18 in 9.0 mi East 8.1 mph - N/A Rain Light Rain
2:25 AM 48.2 °F 48.2 °F 100% 30.18 in 9.0 mi East 8.1 mph - N/A Rain Light Rain
2:30 AM 48.2 °F 48.2 °F 100% 30.18 in 9.0 mi East 6.9 mph - N/A Rain Light Rain
2:35 AM 48.2 °F 48.2 °F 100% 30.17 in 10.0 mi East 8.1 mph - N/A   Light Drizzle
2:45 AM 48.2 °F 48.2 °F 100% 30.17 in 10.0 mi East 8.1 mph - N/A   Overcast
2:58 AM 47.5 °F 47.5 °F 100% 30.19 in 10.0 mi East 8.1 mph - 0.00 in   Overcast
3:28 AM 48.2 °F 48.2 °F 100% 30.15 in 9.0 mi East 10.4 mph - N/A   Overcast
3:33 AM 48.2 °F 48.2 °F 100% 30.15 in 8.0 mi East 10.4 mph - N/A   Overcast
3:58 AM 48.2 °F 48.2 °F 100% 30.16 in 10.0 mi East 9.2 mph - N/A   Overcast
4:43 AM 48.2 °F 48.2 °F 100% 30.13 in 10.0 mi ESE 10.4 mph - N/A   Overcast
4:58 AM 47.5 °F 47.5 °F 100% 30.14 in 10.0 mi ESE 8.1 mph - N/A   Overcast
5:18 AM 48.2 °F 48.2 °F 100% 30.13 in 10.0 mi ESE 6.9 mph - N/A   Overcast
5:43 AM 48.2 °F 48.2 °F 100% 30.12 in 9.0 mi East 6.9 mph - N/A   Overcast
5:58 AM 47.5 °F 47.5 °F 100% 30.14 in 7.0 mi East 8.1 mph - N/A   Overcast
6:00 AM 48.2 °F 48.2 °F 100% 30.12 in 6.0 mi East 8.1 mph - N/A   Light Drizzle
6:05 AM 48.2 °F 48.2 °F 100% 30.11 in 4.0 mi East 8.1 mph - N/A Rain Light Rain
6:15 AM 48.2 °F 48.2 °F 100% 30.11 in 5.0 mi East 6.9 mph - N/A Rain Light Rain
6:25 AM 48.2 °F 48.2 °F 100% 30.11 in 5.0 mi East 6.9 mph - N/A   Light Drizzle
6:50 AM 48.2 °F 48.2 °F 100% 30.12 in 7.0 mi East 4.6 mph - N/A Rain Light Rain
6:55 AM 48.2 °F 48.2 °F 100% 30.12 in 8.0 mi East 4.6 mph - N/A Rain Light Rain
6:58 AM 47.5 °F 47.5 °F 100% 30.14 in 9.0 mi East 3.5 mph - 0.00 in Rain Light Rain
7:45 AM 48.2 °F 48.2 °F 100% 30.12 in 10.0 mi ENE 8.1 mph - N/A   Overcast
7:54 AM 48.2 °F 48.2 °F 100% 30.11 in 10.0 mi ENE 5.8 mph - N/A   Light Drizzle
7:58 AM 48.0 °F 48.0 °F 100% 30.14 in 10.0 mi ENE 6.9 mph - 0.00 in   Light Drizzle
8:04 AM 48.2 °F 48.2 °F 100% 30.12 in 10.0 mi ENE 8.1 mph - N/A   Overcast
8:58 AM 48.7 °F 48.7 °F 100% 30.14 in 10.0 mi ENE 5.8 mph - 0.00 in   Overcast
9:58 AM 48.9 °F 48.9 °F 100% 30.14 in 10.0 mi ENE 5.8 mph - N/A   Overcast
10:58 AM 49.5 °F 49.5 °F 100% 30.13 in 10.0 mi ENE 6.9 mph - N/A   Overcast
11:16 AM 50.0 °F 50.0 °F 100% 30.11 in 10.0 mi NE 8.1 mph - N/A   Light Drizzle
11:28 AM 50.0 °F 50.0 °F 100% 30.11 in 10.0 mi ENE 6.9 mph - N/A   Overcast
11:58 AM 49.8 °F 49.8 °F 100% 30.13 in 8.0 mi ENE 6.9 mph - 0.00 in   Overcast
12:03 PM 50.0 °F 50.0 °F 100% 30.10 in 7.0 mi ENE 6.9 mph - N/A   Overcast
12:47 PM 50.0 °F 50.0 °F 100% 30.10 in 4.0 mi ENE 6.9 mph - N/A   Light Drizzle
12:58 PM 50.2 °F 50.2 °F 100% 30.11 in 4.0 mi ENE 8.1 mph - 0.00 in   Light Drizzle
1:58 PM 50.2 °F 50.2 °F 100% 30.09 in 5.0 mi NE 8.1 mph - 0.00 in   Light Drizzle
2:58 PM 50.2 °F 50.2 °F 100% 30.09 in 5.0 mi NE 9.2 mph - 0.00 in Rain Light Rain
3:48 PM 50.0 °F 50.0 °F 100% 30.05 in 10.0 mi NE 9.2 mph - N/A Rain Light Rain
3:58 PM 50.9 °F 50.9 °F 100% 30.06 in 9.0 mi NE 6.9 mph - 0.00 in Rain Light Rain
4:23 PM 51.8 °F 51.8 °F 100% 30.04 in 10.0 mi NE 5.8 mph - N/A Rain Light Rain
4:53 PM 51.8 °F 51.8 °F 100% 30.04 in 10.0 mi NNE 5.8 mph - N/A Rain Light Rain
4:58 PM 51.8 °F 51.8 °F 100% 30.06 in 10.0 mi NNE 6.9 mph - 0.00 in Rain Light Rain
5:03 PM 51.8 °F 51.8 °F 100% 30.04 in 10.0 mi NNE 6.9 mph - N/A   Light Drizzle
5:08 PM 51.8 °F 51.8 °F 100% 30.04 in 10.0 mi North 8.1 mph - N/A   Light Drizzle
5:09 PM 51.8 °F 51.8 °F 100% 30.04 in 10.0 mi North 8.1 mph - N/A   Overcast
5:35 PM 51.8 °F 51.8 °F 100% 30.04 in 10.0 mi NNE 5.8 mph - N/A   Overcast
5:40 PM 51.8 °F 51.8 °F 100% 30.03 in 10.0 mi NNE 8.1 mph - N/A   Overcast
5:58 PM 51.3 °F 51.3 °F 100% 30.04 in 10.0 mi NNE 6.9 mph - 0.00 in   Overcast
6:58 PM 51.4 °F 51.4 °F 100% 30.04 in 10.0 mi NNE 6.9 mph - N/A   Overcast
7:03 PM 51.8 °F 51.8 °F 100% 30.02 in 10.0 mi NNE 5.8 mph - N/A   Overcast
7:13 PM 51.8 °F 51.8 °F 100% 30.03 in 10.0 mi North 5.8 mph - N/A   Overcast
7:23 PM 51.8 °F 51.8 °F 100% 30.03 in 10.0 mi North 6.9 mph - N/A   Overcast
7:33 PM 51.8 °F 51.8 °F 100% 30.03 in 10.0 mi North 4.6 mph - N/A   Overcast
7:38 PM 51.8 °F 51.8 °F 100% 30.03 in 10.0 mi North 4.6 mph - N/A   Overcast
7:58 PM 50.9 °F 50.9 °F 100% 30.04 in 10.0 mi North 3.5 mph - N/A   Overcast
8:13 PM 50.0 °F 50.0 °F 100% 30.02 in 10.0 mi Variable 3.5 mph - N/A   Overcast
8:58 PM 50.5 °F 50.5 °F 100% 30.04 in 10.0 mi NNE 3.5 mph - N/A   Overcast
9:38 PM 50.0 °F 50.0 °F 100% 30.03 in 10.0 mi NNW 4.6 mph - N/A   Overcast
9:43 PM 50.0 °F 50.0 °F 100% 30.03 in 10.0 mi NNW 4.6 mph - N/A   Overcast
9:53 PM 50.0 °F 50.0 °F 100% 30.02 in 10.0 mi NNW 3.5 mph - N/A   Overcast
9:58 PM 50.5 °F 50.5 °F 100% 30.04 in 10.0 mi NNW 2.3 mph - N/A   Overcast
10:03 PM 50.0 °F 50.0 °F 100% 30.02 in 10.0 mi NW 2.3 mph - N/A   Overcast
10:13 PM 50.0 °F 50.0 °F 100% 30.02 in 10.0 mi NNW 1.2 mph - N/A   Overcast
10:23 PM 50.0 °F 50.0 °F 100% 30.02 in 10.0 mi North 2.3 mph - N/A   Overcast
10:28 PM 50.0 °F 50.0 °F 100% 30.02 in 10.0 mi NNW 2.3 mph - N/A   Overcast
10:58 PM 50.4 °F 50.4 °F 100% 30.02 in 10.0 mi Calm Calm - N/A   Overcast
11:13 PM 50.0 °F 50.0 °F 100% 30.02 in 10.0 mi West 2.3 mph - N/A   Overcast
11:53 PM 50.0 °F 50.0 °F 100% 30.00 in 10.0 mi SW 2.3 mph - N/A   Overcast
11:58 PM 50.2 °F 50.2 °F 100% 30.01 in 10.0 mi SW 2.3 mph - N/A   Overcast